BEIDOU-3S M2S (C58)

Last updated on Sun Jun 21 2026 00:03:31 GMT+0000 (Coordinated Universal Time)

1 40748U 15037A 26170.47115793 -.00000084 00000+0 00000+0 0 9993 2 40748 54.8690 301.9679 0008432 258.8961 101.0039 1.86231851 74165
UTC large
Height (km)
Speed (km/s)
/
Latitude / Longitude
Inclination (degrees)
Orbital Period (minutes)
Azimuth
Elevation
Range (km)
Doppler Factor

Next 0 passes for location: London (51.5072 / 0.1276)

No passes found over London.
BEIDOU-3S M2S (C58)